"Pseudo-MPEC" for P11JPAV

Created 2023 Sep 19 16:22:25 UT using Find_Orb

Click here for an explanation of pseudo-MPECs

 
 Astrometry: 
     P11JPAV  C2023 09 14ldS#WdOO[s5X5_95y=!1Imy/M@OqAAJxxhMMIb'6t%U7[VnFYaEiF52
     P11JPAV  C2023 09 14h@Ek9fo7d]k`?-g/c;hR#uIT;Iw*C;O4.o)EY@d$]1GFObhmnkhoF52
     P11JPAV* C2023 09 17nw0=Nn:AstrometryjwNRlWx%w)Wyo$EDfg7[2Z*1nx_c8)`g\-xF51
     P11JPAV  C2023 09 1742PPpaOefNcR;gM4Kredacted;-y@+_]xBw?$*=8qclickGBg/qRF51
     P11JPAV  C2023 09 17Oy;[noIu^N)]nhB+f?)+Cg#6^JXK3*Wb)LDRBGMZuV=DE:Ohere1F51
     P11JPAV 3C2023 09 18Y2qVTtF8xY2cONFLxxMXI6OG[iPGHcY=l%/j^'V!W_H31fore_ZwT14
     P11JPAV 3C2023 09 18bqLcRp9SrKQs=W)b;dqAWs.iss(TJDKQ-WGFe?#jqv.(YJwDBn?gT14
     P11JPAV 3C2023 09 18NCa!%oLItW0+$explanationVpC3an0IvCMtAohaIVilqjq@pt:'T14

Station data:
(F51) Pan-STARRS 1, Haleakala  (N20.707234 W156.255910)  US/Hawaii.
   Observers J. Bulger, T. Lowe, A. Schultz, M. Willman. Measurers K.
   Chambers, S. Chastel, T. de Boer, L. Denneau, J. Fairlamb, H. Flewelling,
   M. Huber, C.-C. Lin, E. Magnier, Y. Ramanjooloo, R. Wainscoat, R. Weryk.
   1.8-m Ritchey-Chrétien + CCD.
(F52) Pan-STARRS 2, Haleakala  (N20.707382 W156.255910)  US/Hawaii.
   Observers J. Bulger, T. Dukes, T. Lowe, A. Schultz, M. Willman. Measurers
   K. Chambers, S. Chastel, T. de Boer, L. Denneau, J. Fairlamb, H.
   Flewelling, M. Huber, C.-C. Lin, E. Magnier, Y. Ramanjooloo, R. Wainscoat,
   R. Weryk. 1.8-m Ritchey-Chrétien + CCD.
(T14) Mauna Kea-UH/Tholen NEO Follow-Up (CFHT)  (N19.825252 W155.468876)
   US/Hawaii.  Observer R. Weryk. 3.6-m Canada-France-Hawaii Telescope.

Orbital elements:  P11JPAV
   Perihelion 2023 Aug 11.11138 +/- 0.879 TT =  2:40:22 (JD 2460167.61138)
Epoch 2023 Sep 18.0 TT = JDT 2460205.5   Earth MOID: 0.3578   Ma: 0.0310
M  16.47085362 +/- 0.7              (J2000 ecliptic)             AutoNEOCP
n   0.43471764 +/- 0.00847          Peri.  322.45596 +/- 0.7
a   1.72582941 +/- 0.0224           Node     7.64901 +/- 0.022
e   0.2363106 +/- 0.0067            Incl.   30.44599 +/- 0.43
P   2.27/828.11d           H 22.08  G  0.15   U  9.5
q 1.31799758 +/- 0.00555    Q 2.13366125 +/- 0.0393
From 8 observations 2023 Sept. 14-18; mean residual 0".11
Residuals in arcseconds: 
230914 F52  .10+  .12-    230917 F51  .10+  .12-    230918 T14  .01+  .01-    
230914 F52  .11-  .11+    230917 F51  .13+  .11-    230918 T14  .01+  .00     
230917 F51  .18-  .27+    230918 T14  .02-  .00     

Ephemerides (geocentric):
Date (UTC) HH   RA             Dec           delta  r     elong  mag " sig PA
---- --------  ------------   ------------  ------ ------ -----  --- --------
2023 09 19 16  01 03 29.844   -12 29 36.52  .36382 1.3486 157.9 21.4 .072 151
2023 09 19 17  01 03 19.953   -12 27 16.12  .36375 1.3487 157.9 21.4 .082 156
2023 09 19 18  01 03 10.058   -12 24 55.62  .36369 1.3487 158.0 21.4 .092 159
2023 09 19 19  01 03 00.158   -12 22 35.01  .36362 1.3488 158.1 21.4 .103 162
2023 09 19 20  01 02 50.253   -12 20 14.30  .36356 1.3489 158.2 21.4 .114 164
2023 09 19 21  01 02 40.345   -12 17 53.49  .36349 1.3489 158.2 21.4 .126 165
2023 09 19 22  01 02 30.432   -12 15 32.57  .36343 1.3490 158.3 21.4 .138 167
2023 09 19 23  01 02 20.515   -12 13 11.55  .36336 1.3491 158.4 21.4 .150 168
2023 09 20 00  01 02 10.594   -12 10 50.43  .36330 1.3491 158.5 21.4 .162 169
2023 09 20 01  01 02 00.668   -12 08 29.21  .36324 1.3492 158.6 21.4 .175 170
2023 09 20 02  01 01 50.739   -12 06 07.89  .36318 1.3492 158.6 21.4 .188 171
2023 09 20 03  01 01 40.805   -12 03 46.47  .36312 1.3493 158.7 21.4 .201 171
2023 09 20 04  01 01 30.867   -12 01 24.94  .36305 1.3494 158.8 21.4 .214 172
2023 09 20 05  01 01 20.926   -11 59 03.32  .36299 1.3494 158.9 21.4 .228 172
2023 09 20 06  01 01 10.980   -11 56 41.60  .36293 1.3495 159.0 21.4 .242 173
2023 09 20 07  01 01 01.030   -11 54 19.78  .36288 1.3496 159.0 21.4 .256 173
2023 09 20 08  01 00 51.077   -11 51 57.86  .36282 1.3496 159.1 21.4 .270 173
2023 09 20 09  01 00 41.120   -11 49 35.84  .36276 1.3497 159.2 21.4 .285 174
2023 09 20 10  01 00 31.158   -11 47 13.73  .36270 1.3498 159.3 21.4 .300 174
2023 09 20 11  01 00 21.193   -11 44 51.52  .36265 1.3498 159.3 21.4 .315 174
2023 09 20 12  01 00 11.225   -11 42 29.21  .36259 1.3499 159.4 21.4 .330 174
2023 09 20 13  01 00 01.252   -11 40 06.81  .36253 1.3499 159.5 21.4 .346 174
2023 09 20 14  00 59 51.276   -11 37 44.31  .36248 1.3500 159.6 21.4 .362 174
2023 09 20 15  00 59 41.296   -11 35 21.72  .36242 1.3501 159.7 21.4 .378 174
2023 09 20 16  00 59 31.313   -11 32 59.04  .36237 1.3501 159.7 21.4 .394 174
2023 09 20 17  00 59 21.326   -11 30 36.26  .36232 1.3502 159.8 21.4 .411 174
2023 09 20 18  00 59 11.335   -11 28 13.38  .36226 1.3503 159.9 21.4 .427 174
2023 09 20 19  00 59 01.341   -11 25 50.42  .36221 1.3503 160.0 21.4 .444 174
2023 09 20 20  00 58 51.344   -11 23 27.36  .36216 1.3504 160.0 21.4 .462 174
2023 09 20 21  00 58 41.343   -11 21 04.21  .36211 1.3505 160.1 21.4 .479 174
2023 09 20 22  00 58 31.339   -11 18 40.97  .36206 1.3505 160.2 21.4 .497 174
2023 09 20 23  00 58 21.332   -11 16 17.64  .36201 1.3506 160.3 21.3 .515 174
2023 09 21 00  00 58 11.321   -11 13 54.22  .36196 1.3506 160.4 21.3 .533 174
2023 09 21 01  00 58 01.307   -11 11 30.71  .36191 1.3507 160.4 21.3 .552 174
2023 09 21 02  00 57 51.289   -11 09 07.11  .36186 1.3508 160.5 21.3 .571 174
2023 09 21 03  00 57 41.269   -11 06 43.42  .36181 1.3508 160.6 21.3 .590 174
2023 09 21 04  00 57 31.245   -11 04 19.65  .36177 1.3509 160.7 21.3 .609 174
2023 09 21 05  00 57 21.219   -11 01 55.78  .36172 1.3510 160.8 21.3 .629 174
2023 09 21 06  00 57 11.189   -10 59 31.83  .36167 1.3510 160.8 21.3 .648 174
2023 09 21 07  00 57 01.156   -10 57 07.79  .36163 1.3511 160.9 21.3 .668 174
2023 09 21 08  00 56 51.120   -10 54 43.67  .36158 1.3512 161.0 21.3 .689 173
2023 09 21 09  00 56 41.081   -10 52 19.46  .36154 1.3512 161.1 21.3 .710 173
2023 09 21 10  00 56 31.040   -10 49 55.17  .36150 1.3513 161.1 21.3 .730 173
2023 09 21 11  00 56 20.995   -10 47 30.79  .36145 1.3514 161.2 21.3 .752 173
2023 09 21 12  00 56 10.948   -10 45 06.33  .36141 1.3514 161.3 21.3 .773 173
2023 09 21 13  00 56 00.898   -10 42 41.79  .36137 1.3515 161.4 21.3 .795 173
2023 09 21 14  00 55 50.845   -10 40 17.16  .36133 1.3516 161.5 21.3 .817 173
2023 09 21 15  00 55 40.789   -10 37 52.45  .36129 1.3516 161.5 21.3 .839 173